Location: Caltech
(34.1382°N, 118.1253°W)
Time: 13:28:07
(UTC-07:00)

ARGOS - Visible Passes

Search period start: 25 April 2017 00:00
Search period end: 05 May 2017 00:00
Orbit: 820 x 835 km, 98.6° (Epoch: 24 April)

Date Brightness Start Highest point End Pass type
(mag) Time Alt. Az. Time Alt. Az. Time Alt. Az.
25 Apr 4.3 21:15:37 25° ENE 21:16:00 26° ENE 21:20:20 10° NNE visible
25 Apr 4.6 22:57:07 31° WNW 22:57:07 31° WNW 23:00:51 10° NNW visible
26 Apr 4.7 20:56:45 17° ENE 20:57:38 17° ENE 21:01:02 10° NNE visible
26 Apr 3.9 22:38:15 47° WNW 22:38:15 47° WNW 22:42:38 10° NNW visible
27 Apr 5.1 20:37:52 10° ENE 20:39:20 11° ENE 20:40:56 10° NE visible
27 Apr 3.3 22:19:23 70° NW 22:19:23 70° NW 22:24:13 10° NNW visible
28 Apr 3.1 22:00:30 68° ENE 22:00:30 68° ENE 22:05:38 10° N visible
28 Apr 5.8 23:42:01 11° W 23:42:01 11° W 23:42:49 10° WNW visible
29 Apr 3.5 21:41:38 45° ENE 21:41:49 45° ENE 21:46:55 10° N visible
29 Apr 5.3 23:23:08 18° W 23:23:08 18° W 23:25:54 10° NW visible
30 Apr 4.0 21:22:45 29° E 21:23:23 30° ENE 21:28:01 10° N visible
30 Apr 4.8 23:04:17 27° W 23:04:17 27° W 23:08:08 10° NW visible
01 May 4.6 21:03:53 19° E 21:05:00 20° ENE 21:08:52 10° NNE visible
01 May 4.1 22:45:24 42° W 22:45:24 42° W 22:50:00 10° NNW visible
02 May 5.0 20:45:02 12° E 20:46:41 14° ENE 20:49:15 10° NE visible
02 May 3.3 22:26:32 66° W 22:26:32 66° W 22:31:39 10° NNW visible
03 May 3.0 22:07:40 81° E 22:07:45 81° ENE 22:13:08 10° N visible
04 May 3.3 21:48:48 52° E 21:49:15 54° ENE 21:54:29 10° N visible
04 May 5.4 23:30:19 15° W 23:30:19 15° W 23:32:53 10° WNW visible
